[[{"header":{"parameterUnit":"m.s-1","parameterCategory":2,"la1":30.2991,"la2":30.254,"lo1":-89.0895,"lo2":-89.0444,"dy":0.0017,"dx":0.0017,"nx":28,"ny":28,"refTime":"2024-03-31T09:00:00:Z","depth":"0","parameterNumber":2,"parameterNumberName":"U-component_of_CURRENTS"},"data":[0,0,0,0,0,0,0,0,0,0,0,0,0,0,0,0,0,0,0,0,0,0,0,0,0,0,0,0,0,0,0,0,0,0,0,0,0,0,0,0,0,0,0,0,0,0,0,0,0,0,0,0,0,0,0,0,0,0,0.2268,0.2268,0,0.2305,0.2305,0.2305,0.2303,0.2303,0.2302,0.2302,0.2309,0.231,0.231,0,0,0,0,0,0,0,0,0,0,0,0,0,0.2216,0.2216,0.2268,0.2268,0.2269,0.2305,0.2305,0.2305,0.2303,0.2303,0.2302,0.2301,0.2309,0.231,0.231,0,0,0,0,0,0,0,0,0,0,0,0,0,0.2243,0.2217,0.2267,0.2273,0.2274,0.2305,0.2305,0.2306,0.2303,0.2303,0.2302,0.2301,0.2309,0.231,0.231,0.2329,0,0,0.2313,0.2314,0,0,0,0,0,0,0,0,0.2241,0.2245,0.2271,0.2272,0.2274,0.23,0.2289,0.2312,0.2303,0.2291,0.2302,0.2301,0.2304,0.2306,0.2313,0.233,0.233,0.2313,0.2314,0.2314,0.2314,0,0,0,0,0,0,0,0.2239,0.2243,0.2281,0.2272,0.2273,0.228,0.2283,0.2294,0.2299,0.2292,0.2292,0.2298,0.2304,0.2312,0.2313,0.233,0.2313,0.2314,0.2315,0.2315,0.2399,0.2401,0,0,0,0,0,0,0.2237,0.2241,0.228,0.2282,0.2257,0.2282,0.2285,0.2291,0.23,0.2301,0.2299,0.2298,0.2311,0.2312,0.2313,0.2362,0.2314,0.2315,0.2316,0.2398,0.24,0.2402,0,0,0,0,0,0,0.2236,0.224,0.2278,0.2263,0.2269,0.2283,0.229,0.2292,0.2301,0.2306,0.2306,0.2306,0.231,0.2312,0.2332,0.2361,0.2315,0.2316,0.2396,0.2398,0.2401,0.2442,0,0,0,0,0,0,0.2234,0.2239,0.2244,0.2263,0.227,0.2303,0.2291,0.2293,0.2307,0.2306,0.2313,0.2312,0.231,0.2331,0.2333,0.2361,0.2317,0.2394,0.2397,0.24,0.2438,0.2446,0.2452,0,0,0,0,0,0.2232,0.224,0.2244,0.2249,0.2276,0.2304,0.2308,0.2315,0.2308,0.2319,0.2325,0.2312,0.2353,0.2333,0.2335,0.2364,0.2392,0.2396,0.24,0.2435,0.2444,0.2451,0,0,0,0,0,0,0.2215,0.2241,0.2246,0.226,0.2284,0.2304,0.2314,0.2319,0.2333,0.233,0.2328,0.233,0.2363,0.2359,0.2337,0.24,0.2373,0.2378,0.24,0.2408,0.2414,0.244,0.2318,0,0,0,0,0,0.2216,0.2229,0.2257,0.2267,0.2281,0.2299,0.231,0.2318,0.2333,0.2338,0.2345,0.2358,0.2382,0.2389,0.2407,0.2434,0.2471,0.2458,0.2464,0.247,0.2494,0.2569,0.2585,0.2414,0.2414,0.2414,0,0,0.2214,0.2228,0.2236,0.2265,0.2282,0.2309,0.2304,0.2326,0.2352,0.2337,0.2369,0.2381,0.2396,0.2432,0.2447,0.243,0.2541,0.2475,0.2479,0.2501,0.2575,0.2592,0.2607,0.2417,0.2416,0.2416,0,0,0.2216,0.2228,0.2243,0.2268,0.2298,0.2315,0.2324,0.2352,0.2369,0.24,0.2406,0.2439,0.2457,0.2488,0.2501,0.2557,0.2575,0.2557,0.2608,0.268,0.2695,0.2708,0.2786,0.2806,0.2557,0.2557,0.2557,0,0.2213,0.2234,0.2253,0.2278,0.2301,0.2319,0.2348,0.2373,0.2405,0.2436,0.2414,0.2488,0.2491,0.2561,0.2582,0.2574,0.262,0.2571,0.2689,0.2703,0.2717,0.2793,0.2815,0.256,0.2559,0.2559,0.2559,0,0.223,0.2253,0.2265,0.2304,0.2332,0.2359,0.2399,0.2433,0.2449,0.248,0.2548,0.2563,0.2614,0.2618,0.2614,0.2714,0.2719,0.269,0.2668,0.2737,0.2812,0.2834,0.2563,0.2562,0.2562,0.2561,0,0,0.221,0.2267,0.2271,0.23,0.235,0.2376,0.2431,0.2496,0.2545,0.2578,0.265,0.2694,0.2714,0.2734,0.2741,0.2797,0.2924,0.2787,0.279,0.2864,0.3102,0.3077,0.3099,0.2915,0.2918,0.2921,0.3121,0,0.222,0.227,0.2296,0.2349,0.2383,0.2428,0.2479,0.2542,0.2592,0.2667,0.2713,0.2776,0.2755,0.2784,0.2844,0.2909,0.2983,0.2874,0.3027,0.3032,0.3,0.3123,0.2973,0.3136,0.3142,0.3146,0.3149,0,0.2225,0.2264,0.2315,0.2388,0.2407,0.2442,0.254,0.2587,0.2698,0.2744,0.2825,0.2863,0.2974,0.2925,0.3096,0.303,0.3084,0.3121,0.3128,0.3109,0.3048,0.3067,0.3175,0.3097,0.3182,0.318,0.3177,0,0.2202,0.2273,0.2316,0.2341,0.2426,0.2465,0.2511,0.2613,0.2678,0.2803,0.2874,0.2986,0.3064,0.3149,0.3235,0.3182,0.3415,0.3344,0.3379,0.3377,0.3284,0.3267,0.3333,0.3476,0.3476,0.3475,0.3475,0,0.2198,0.2232,0.2311,0.2335,0.2397,0.2458,0.2539,0.2606,0.2726,0.282,0.2913,0.3021,0.3126,0.3258,0.3305,0.3436,0.3482,0.3437,0.3444,0.3293,0.3277,0.3229,0.3192,0.3483,0.3481,0.348,0.3478,0,0.2159,0.2209,0.2265,0.2357,0.2384,0.2428,0.254,0.2606,0.2726,0.2858,0.2907,0.3096,0.3275,0.3378,0.3541,0.354,0.3552,0.3667,0.3491,0.3473,0.339,0.3361,0.3338,0.3243,0.3745,0.3746,0.3747,0,0.2146,0.217,0.2261,0.2298,0.2337,0.2414,0.2466,0.2586,0.2667,0.2902,0.2969,0.3193,0.3331,0.3578,0.3624,0.3735,0.3616,0.3652,0.3513,0.3415,0.3388,0.3226,0.3135,0.3415,0.3413,0.3411,0.341,0,0.2128,0.2157,0.2205,0.2277,0.2333,0.239,0.2479,0.2542,0.2698,0.2828,0.3019,0.3151,0.3398,0.3466,0.3617,0.3647,0.3465,0.362,0.3564,0.3197,0.2982,0.2881,0.3262,0.3395,0.3396,0.3397,0.3398,0.3399,0.2123,0.2146,0.2212,0.2266,0.2317,0.2356,0.2378,0.2487,0.2599,0.2764,0.2959,0.3111,0.3284,0.3475,0.3486,0.3417,0.3393,0.3317,0.3315,0.3179,0.3001,0.3363,0.3462,0.3464,0.3465,0.3467,0.3468,0,0.2139,0.2161,0.2204,0.2259,0.2268,0.2313,0.2379,0.2388,0.2469,0.266,0.281,0.2993,0.3075,0.3177,0.3211,0.3126,0.2932,0.3055,0.2782,0.2727,0.3104,0.3,0.2946,0.2946,0.2946,0.2946,0.2946,0.2946,0.2163,0.2196,0.2199,0.2202,0.2217,0.2204,0.2213,0.2231,0.2328,0.2448,0.2556,0.27,0.2924,0.304,0.2976,0.29,0.2687,0.2564,0.2582,0.2843,0.2865,0.2886,0.2778,0.2679,0.2678,0.2037,0.2033,0.2029]},{"header":{"parameterUnit":"m.s-1","parameterCategory":2,"la1":30.2991,"la2":30.254,"lo1":-89.0895,"lo2":-89.0444,"dy":0.0017,"dx":0.0017,"nx":28,"ny":28,"refTime":"2024-03-31T09:00:00:Z","depth":"0","parameterNumber":3,"parameterNumberName":"V-component_of_CURRENTS"},"data":[0,0,0,0,0,0,0,0,0,0,0,0,0,0,0,0,0,0,0,0,0,0,0,0,0,0,0,0,0,0,0,0,0,0,0,0,0,0,0,0,0,0,0,0,0,0,0,0,0,0,0,0,0,0,0,0,0,0,0.0097,0.0097,0,0.0054,0.0054,0.0053,0.0021,0.0021,0.0021,0.002,-0.007,-0.0072,-0.0074,0,0,0,0,0,0,0,0,0,0,0,0,0,0.0125,0.0125,0.0097,0.0097,0.0096,0.0054,0.0054,0.0053,0.0021,0.0021,0.0021,0.002,-0.0069,-0.0071,-0.0074,0,0,0,0,0,0,0,0,0,0,0,0,0,0.0101,0.0125,0.0097,0.0075,0.0073,0.0054,0.0054,0.0053,0.0021,0.0021,0.002,0.002,-0.0068,-0.0071,-0.0074,-0.0085,0,0,-0.0084,-0.0085,0,0,0,0,0,0,0,0,0.0102,0.01,0.0079,0.0076,0.0074,0.0042,0.003,0.0005,0.0021,0.0041,0.002,0.002,-0.0036,-0.0042,-0.0048,-0.0089,-0.0093,-0.0084,-0.0086,-0.0088,-0.0088,0,0,0,0,0,0,0,0.0104,0.0101,0.008,0.0078,0.0075,0.0058,0.0054,0.0025,0.0005,0.0039,0.0037,0.0032,-0.0038,-0.0045,-0.0051,-0.0094,-0.0084,-0.0087,-0.0089,-0.009,-0.0134,-0.0133,0,0,0,0,0,0,0.0111,0.0103,0.0082,0.0079,0.0087,0.0058,0.0054,0.0053,0.0006,-0.0001,0.0032,0.003,-0.0039,-0.0047,-0.0054,-0.0056,-0.0088,-0.009,-0.0092,-0.0134,-0.0134,-0.0133,0,0,0,0,0,0,0.0111,0.0109,0.0084,0.009,0.0085,0.0058,0.0057,0.0052,0.0047,0.0001,-0.0007,0.0031,-0.004,-0.005,-0.0071,-0.0061,-0.0092,-0.0095,-0.0135,-0.0134,-0.0133,-0.0069,0,0,0,0,0,0,0.0113,0.011,0.0114,0.009,0.0085,0.0083,0.0058,0.0052,0.0044,0.0041,-0.0002,-0.0011,-0.0041,-0.0066,-0.0074,-0.0066,-0.0097,-0.0136,-0.0135,-0.0134,-0.0072,-0.0066,-0.0061,0,0,0,0,0,0.0114,0.0126,0.0115,0.0112,0.0091,0.0084,0.008,0.0058,0.0044,0.005,0.002,-0.001,-0.0063,-0.0068,-0.0078,-0.007,-0.0137,-0.0135,-0.0134,-0.0075,-0.0067,-0.0061,0,0,0,0,0,0,0.0141,0.0123,0.011,0.0116,0.0104,0.0078,0.008,0.0064,0.0045,0.004,-0.0004,-0.0014,-0.0028,-0.0056,-0.006,-0.0077,-0.0104,-0.0104,-0.0056,-0.0049,-0.0043,-0.0026,-0.01,0,0,0,0,0,0.0149,0.0152,0.0131,0.0136,0.0132,0.0106,0.01,0.0086,0.0065,0.0056,0.0026,-0.0005,-0.0028,-0.0044,-0.0068,-0.0081,-0.0098,-0.008,-0.0075,-0.007,-0.0062,-0.008,-0.0076,-0.0127,-0.0127,-0.0127,0,0,0.0159,0.015,0.0152,0.0141,0.0129,0.0133,0.0102,0.0099,0.0104,0.0048,0.0046,0.0013,-0.0026,-0.0036,-0.0045,-0.006,-0.0061,-0.0067,-0.0063,-0.0058,-0.0078,-0.0073,-0.0069,-0.0126,-0.0126,-0.0127,0,0,0.0187,0.0176,0.019,0.0185,0.0172,0.0156,0.0158,0.0137,0.013,0.012,0.0085,0.006,0.0024,-0.0,-0.0018,0.0003,-0.0029,-0.0003,0.0036,0.0018,0.0022,0.0026,0.0023,0.0025,-0.0001,-0.0001,-0.0001,0,0.0202,0.0212,0.0193,0.0206,0.0206,0.0171,0.0187,0.0178,0.0153,0.0148,0.0129,0.0082,0.0042,0.003,0.0037,0.0016,0.0008,0.0013,0.0026,0.0029,0.0031,0.0027,0.0029,0.0002,0.0002,0.0001,0.0001,0,0.0237,0.0247,0.0257,0.026,0.026,0.0267,0.0251,0.0251,0.0231,0.0213,0.0199,0.015,0.0123,0.0105,0.0075,0.0075,0.0066,0.0037,0.001,0.004,0.0034,0.0035,0.0007,0.0006,0.0005,0.0004,0,0,0.0269,0.0279,0.0283,0.0296,0.0289,0.0295,0.0307,0.0304,0.0321,0.0282,0.0301,0.0241,0.0212,0.0191,0.015,0.0127,0.0132,0.0095,0.0093,0.0096,0.0109,0.0117,0.0119,0.0107,0.0107,0.0107,0.0103,0,0.0302,0.0337,0.0332,0.0368,0.0384,0.0367,0.0386,0.038,0.0368,0.038,0.0323,0.0324,0.0247,0.0248,0.0208,0.0163,0.0136,0.0137,0.0076,0.0075,0.008,0.012,0.0092,0.0088,0.0104,0.0104,0.0104,0,0.0339,0.0357,0.0398,0.0427,0.0434,0.0454,0.0479,0.0496,0.0494,0.049,0.0465,0.043,0.0399,0.0335,0.0253,0.0262,0.019,0.014,0.0138,0.0124,0.0085,0.0056,0.0088,-0.0078,0.0105,0.0105,0.0105,0,0.0372,0.0406,0.0441,0.045,0.0477,0.05,0.0517,0.0526,0.057,0.0573,0.0615,0.0539,0.0557,0.044,0.0335,0.0299,0.0256,0.0191,0.0124,0.0124,0.0078,0.0074,-0.0057,0.0123,0.0123,0.0123,0.0123,0,0.041,0.0439,0.0464,0.0486,0.0547,0.0549,0.0623,0.0628,0.0678,0.0766,0.0685,0.0757,0.0588,0.0543,0.0393,0.0287,0.0298,0.0147,0.0127,0.0101,0.01,-0.0066,-0.0154,0.0123,0.0123,0.0123,0.0123,0,0.0448,0.0457,0.0511,0.055,0.0567,0.062,0.0712,0.0779,0.0809,0.0933,0.0954,0.0944,0.0896,0.0717,0.0564,0.0407,0.0176,0.022,0.0214,0.0193,-0.0043,-0.0125,-0.0249,-0.0334,0.014,0.014,0.014,0,0.0469,0.0499,0.0567,0.0625,0.0652,0.0731,0.0801,0.084,0.0936,0.1072,0.1155,0.115,0.1183,0.0957,0.0658,0.0401,0.0218,0.0204,0.0113,-0.0042,-0.015,-0.0212,-0.0279,0.0077,0.0077,0.0076,0.0076,0,0.0525,0.0553,0.0608,0.0723,0.0807,0.0908,0.1015,0.1105,0.1203,0.1323,0.1495,0.1535,0.1328,0.1076,0.0709,0.0503,0.0078,0.0192,0.0019,-0.0209,-0.0275,-0.0369,0.0076,0.0074,0.0074,0.0074,0.0074,0.0074,0.0586,0.0646,0.0736,0.0847,0.095,0.1096,0.119,0.1334,0.1509,0.1706,0.1737,0.1827,0.1431,0.0933,0.0642,0.0073,0.0076,-0.0122,-0.0205,-0.0251,-0.0347,0.0113,0.0094,0.0094,0.0094,0.0095,0.0095,0,0.0683,0.0752,0.0859,0.1001,0.1129,0.116,0.1346,0.146,0.168,0.1871,0.2012,0.1861,0.1376,0.0857,0.0102,-0.0271,-0.0432,-0.0476,-0.0607,-0.0657,-0.0264,-0.0284,-0.0371,-0.0371,-0.0371,-0.0371,-0.037,-0.037,0.0751,0.0871,0.0919,0.1134,0.123,0.139,0.1495,0.1678,0.1836,0.2054,0.2107,0.2118,0.171,0.0417,-0.0466,-0.0672,-0.0921,-0.097,-0.1079,-0.0857,-0.0832,-0.0808,-0.085,-0.1054,-0.1055,-0.1463,-0.1467,-0.147]}],[{"header":{"parameterUnit":"m.s-1","parameterCategory":2,"la1":30.2991,"la2":30.254,"lo1":-89.0895,"lo2":-89.0444,"dy":0.0017,"dx":0.0017,"nx":28,"ny":28,"refTime":"2024-03-31T09:00:00:Z","depth":"2","parameterNumber":2,"parameterNumberName":"U-component_of_CURRENTS"},"data":[0,0,0,0,0,0,0,0,0,0,0,0,0,0,0,0,0,0,0,0,0,0,0,0,0,0,0,0,0,0,0,0,0,0,0,0,0,0,0,0,0,0,0,0,0,0,0,0,0,0,0,0,0,0,0,0,0,0,0.2078,0.2078,0,0.2113,0.2113,0.2113,0.2117,0.2117,0.2117,0.2116,0.2145,0.2146,0.2147,0,0,0,0,0,0,0,0,0,0,0,0,0,0.2015,0.2016,0.2078,0.2078,0.2079,0.2113,0.2113,0.2113,0.2117,0.2117,0.2117,0.2116,0.2145,0.2146,0.2147,0,0,0,0,0,0,0,0,0,0,0,0,0,0.2042,0.2016,0.2077,0.2087,0.2089,0.2113,0.2113,0.2113,0.2117,0.2117,0.2117,0.2116,0.2144,0.2146,0.2147,0.2156,0,0,0.2151,0.2151,0,0,0,0,0,0,0,0,0.2041,0.2044,0.2085,0.2087,0.2089,0.2113,0.2102,0.2128,0.2117,0.2102,0.2116,0.2116,0.2136,0.2138,0.214,0.2157,0.2158,0.2151,0.2151,0.2152,0.2152,0,0,0,0,0,0,0,0.2039,0.2043,0.2088,0.2086,0.2088,0.2091,0.2094,0.2107,0.2116,0.2104,0.2105,0.2114,0.2137,0.2139,0.2141,0.2159,0.2151,0.2152,0.2152,0.2153,0.2242,0.2243,0,0,0,0,0,0,0.2042,0.2041,0.2087,0.2089,0.2068,0.2093,0.2096,0.2103,0.2117,0.212,0.2114,0.2115,0.2137,0.2139,0.2142,0.2204,0.2152,0.2153,0.2154,0.224,0.2242,0.2244,0,0,0,0,0,0,0.204,0.2045,0.2086,0.2069,0.2075,0.2094,0.2101,0.2103,0.2117,0.2125,0.2128,0.2127,0.2137,0.214,0.2157,0.2203,0.2154,0.2155,0.2238,0.2241,0.2243,0.2295,0,0,0,0,0,0,0.2038,0.2044,0.2053,0.2069,0.2076,0.2107,0.2102,0.2104,0.2124,0.2125,0.2137,0.2139,0.2137,0.2155,0.2158,0.2204,0.2156,0.2236,0.2239,0.2242,0.2291,0.2299,0.2306,0,0,0,0,0,0.2035,0.2046,0.2053,0.2059,0.2086,0.2108,0.2111,0.2122,0.2125,0.2133,0.2139,0.2139,0.2178,0.2156,0.216,0.2207,0.2235,0.2238,0.2242,0.2288,0.2298,0.2306,0,0,0,0,0,0,0.2026,0.2049,0.2056,0.2074,0.2094,0.211,0.2124,0.2131,0.2142,0.2147,0.2146,0.2149,0.2186,0.2186,0.2162,0.2243,0.2213,0.2217,0.2247,0.2256,0.2263,0.2289,0.2157,0,0,0,0,0,0.2029,0.204,0.2065,0.208,0.2094,0.2112,0.2124,0.2134,0.2146,0.2151,0.2162,0.218,0.2204,0.2218,0.2233,0.2268,0.2295,0.2305,0.2313,0.2319,0.2344,0.2413,0.2429,0.2256,0.2256,0.2256,0,0,0.2027,0.2045,0.2049,0.2079,0.2097,0.2121,0.2118,0.2145,0.217,0.2154,0.219,0.2202,0.2217,0.2258,0.2277,0.2264,0.2382,0.2323,0.2328,0.2351,0.2419,0.2436,0.2451,0.2258,0.2258,0.2257,0,0,0.2033,0.205,0.2064,0.2086,0.2122,0.2135,0.2146,0.2174,0.2193,0.2221,0.2228,0.2269,0.2288,0.2324,0.234,0.2399,0.2415,0.2404,0.2467,0.2533,0.2548,0.2562,0.2616,0.2635,0.2411,0.2411,0.2411,0,0.2032,0.2058,0.2071,0.2099,0.2129,0.2144,0.2176,0.2195,0.2225,0.2267,0.224,0.232,0.2329,0.2407,0.2429,0.242,0.245,0.2429,0.2544,0.2558,0.2571,0.2624,0.2643,0.2414,0.2414,0.2413,0.2413,0,0.2055,0.2079,0.2094,0.2133,0.2162,0.2194,0.223,0.2259,0.2283,0.2324,0.2401,0.2407,0.2468,0.2476,0.2469,0.2577,0.2566,0.2541,0.2522,0.2592,0.2642,0.2662,0.2418,0.2417,0.2416,0.2416,0,0,0.2037,0.2099,0.2102,0.2136,0.219,0.2217,0.2268,0.2341,0.2399,0.2432,0.2513,0.2564,0.2595,0.2616,0.2618,0.2671,0.2785,0.2651,0.2653,0.2706,0.2932,0.2828,0.2839,0.2776,0.278,0.2783,0.2929,0,0.2054,0.2121,0.214,0.2197,0.2243,0.2278,0.2328,0.24,0.2456,0.2533,0.2587,0.2657,0.264,0.2669,0.2728,0.2773,0.2839,0.2748,0.2857,0.2861,0.276,0.2859,0.2631,0.2734,0.2948,0.2951,0.2953,0,0.2065,0.2119,0.2188,0.2262,0.2284,0.2311,0.2417,0.246,0.2578,0.2633,0.2725,0.2763,0.2872,0.2815,0.2963,0.2905,0.2941,0.2958,0.2963,0.2866,0.2793,0.27,0.2761,0.2985,0.2983,0.298,0.2978,0,0.2064,0.214,0.2204,0.2232,0.2319,0.2353,0.2393,0.2506,0.2574,0.2702,0.2779,0.2893,0.2953,0.3025,0.3077,0.3038,0.3209,0.3158,0.3101,0.3093,0.2923,0.2893,0.327,0.327,0.327,0.3269,0.3269,0,0.2069,0.2112,0.2209,0.2237,0.2318,0.2371,0.2456,0.2519,0.2635,0.2738,0.2833,0.292,0.3009,0.3104,0.3136,0.3189,0.3273,0.3147,0.3138,0.2931,0.2902,0.313,0.3112,0.3275,0.3273,0.3272,0.3271,0,0.2036,0.2101,0.2172,0.2275,0.2312,0.2363,0.2469,0.2533,0.2654,0.2781,0.2829,0.2984,0.3098,0.3169,0.3282,0.3259,0.3312,0.3302,0.3046,0.3003,0.3139,0.3122,0.3276,0.3274,0.3272,0.327,0.3269,0,0.2029,0.2066,0.2184,0.2229,0.2266,0.2354,0.2413,0.253,0.2605,0.2812,0.287,0.3021,0.31,0.3229,0.3211,0.3254,0.3304,0.3054,0.2932,0.3172,0.3148,0.3133,0.3119,0.2736,0.2731,0.2726,0.2723,0,0.2015,0.2051,0.2109,0.2208,0.2272,0.2336,0.2426,0.249,0.2633,0.2736,0.2867,0.2941,0.3061,0.2982,0.3021,0.3009,0.3024,0.2961,0.332,0.2748,0.2669,0.2642,0.2646,0.2682,0.2686,0.2689,0.2691,0.2693,0.2005,0.204,0.2121,0.2189,0.2254,0.2296,0.2308,0.2401,0.2483,0.2575,0.2724,0.274,0.2785,0.2704,0.2656,0.2624,0.2816,0.27,0.2713,0.273,0.262,0.2539,0.2509,0.2512,0.2514,0.2517,0.2519,0,0.2024,0.2052,0.2106,0.2174,0.2176,0.2238,0.2301,0.2275,0.2304,0.2385,0.2434,0.2254,0.2232,0.2292,0.2188,0.22,0.2163,0.2113,0.205,0.2093,0.2131,0.1987,0.171,0.1707,0.1704,0.1701,0,0,0.2045,0.2084,0.2095,0.2086,0.2107,0.2093,0.2094,0.205,0.2065,0.1979,0.1949,0.2086,0.2214,0.1904,0.1892,0.1787,0.1912,0.1718,0.2376,0.2345,0.2378,0.2493,0.2323,0,0,0,0,0]},{"header":{"parameterUnit":"m.s-1","parameterCategory":2,"la1":30.2991,"la2":30.254,"lo1":-89.0895,"lo2":-89.0444,"dy":0.0017,"dx":0.0017,"nx":28,"ny":28,"refTime":"2024-03-31T09:00:00:Z","depth":"2","parameterNumber":3,"parameterNumberName":"V-component_of_CURRENTS"},"data":[0,0,0,0,0,0,0,0,0,0,0,0,0,0,0,0,0,0,0,0,0,0,0,0,0,0,0,0,0,0,0,0,0,0,0,0,0,0,0,0,0,0,0,0,0,0,0,0,0,0,0,0,0,0,0,0,0,0,-0.0101,-0.0101,0,-0.014,-0.0141,-0.0141,-0.0168,-0.0168,-0.0168,-0.0168,-0.025,-0.0252,-0.0254,0,0,0,0,0,0,0,0,0,0,0,0,0,-0.0089,-0.0088,-0.0101,-0.0101,-0.0101,-0.014,-0.0141,-0.0141,-0.0168,-0.0168,-0.0168,-0.0169,-0.0249,-0.0252,-0.0254,0,0,0,0,0,0,0,0,0,0,0,0,0,-0.0109,-0.0088,-0.0101,-0.0119,-0.012,-0.014,-0.0141,-0.0142,-0.0168,-0.0168,-0.0168,-0.0169,-0.0249,-0.0252,-0.0255,-0.0272,0,0,-0.0264,-0.0266,0,0,0,0,0,0,0,0,-0.0107,-0.0109,-0.0116,-0.0117,-0.0119,-0.0148,-0.0166,-0.0187,-0.0168,-0.0151,-0.0168,-0.0169,-0.0219,-0.0225,-0.0233,-0.0276,-0.0279,-0.0265,-0.0267,-0.0268,-0.0269,0,0,0,0,0,0,0,-0.0106,-0.0108,-0.0118,-0.0116,-0.0118,-0.0138,-0.0141,-0.017,-0.0186,-0.0153,-0.0155,-0.0157,-0.0221,-0.023,-0.0235,-0.028,-0.0265,-0.0267,-0.0269,-0.027,-0.0323,-0.0322,0,0,0,0,0,0,-0.0096,-0.0106,-0.0116,-0.0119,-0.0112,-0.0138,-0.0141,-0.014,-0.0185,-0.0191,-0.0157,-0.0158,-0.0224,-0.0231,-0.0238,-0.0237,-0.0268,-0.0271,-0.0273,-0.0323,-0.0323,-0.0322,0,0,0,0,0,0,-0.0096,-0.0096,-0.0115,-0.0113,-0.0116,-0.0138,-0.0136,-0.0141,-0.0146,-0.0187,-0.0194,-0.0157,-0.0225,-0.0234,-0.0255,-0.0242,-0.0272,-0.0275,-0.0324,-0.0323,-0.0322,-0.0251,0,0,0,0,0,0,-0.0095,-0.0096,-0.0091,-0.0112,-0.0116,-0.0119,-0.0136,-0.0141,-0.0147,-0.0149,-0.019,-0.0198,-0.0226,-0.025,-0.0258,-0.0247,-0.0278,-0.0324,-0.0323,-0.0323,-0.0254,-0.0248,-0.0243,0,0,0,0,0,-0.0094,-0.0082,-0.009,-0.0092,-0.0108,-0.0118,-0.0122,-0.0139,-0.0147,-0.0145,-0.0171,-0.0196,-0.025,-0.0253,-0.0262,-0.0251,-0.0325,-0.0324,-0.0323,-0.0257,-0.0249,-0.0243,0,0,0,0,0,0,-0.007,-0.0085,-0.0094,-0.0086,-0.0099,-0.0122,-0.0119,-0.0134,-0.0153,-0.0152,-0.0194,-0.0203,-0.0217,-0.0245,-0.0246,-0.0263,-0.0291,-0.0291,-0.0237,-0.0231,-0.0225,-0.0206,-0.028,0,0,0,0,0,-0.0063,-0.006,-0.0078,-0.0072,-0.0075,-0.0097,-0.0103,-0.0113,-0.0132,-0.0141,-0.0168,-0.0196,-0.0221,-0.0233,-0.026,-0.0271,-0.0294,-0.027,-0.0264,-0.0259,-0.025,-0.0274,-0.027,-0.0318,-0.0318,-0.0318,0,0,-0.0054,-0.0059,-0.0059,-0.0067,-0.0077,-0.0073,-0.0101,-0.0101,-0.0097,-0.0147,-0.0149,-0.018,-0.022,-0.023,-0.0238,-0.025,-0.0256,-0.0257,-0.0253,-0.0247,-0.0273,-0.0268,-0.0264,-0.0318,-0.0318,-0.0318,0,0,-0.0029,-0.0035,-0.0024,-0.0028,-0.0036,-0.005,-0.0048,-0.0066,-0.0072,-0.0082,-0.0114,-0.0133,-0.0172,-0.0192,-0.0209,-0.019,-0.0227,-0.02,-0.0154,-0.0178,-0.0174,-0.0171,-0.0186,-0.0185,-0.0194,-0.0194,-0.0194,0,-0.0016,-0.0002,-0.0023,-0.0009,-0.0003,-0.0036,-0.0018,-0.0031,-0.0054,-0.0052,-0.0072,-0.0115,-0.0152,-0.016,-0.0153,-0.0176,-0.0194,-0.0175,-0.0169,-0.0167,-0.0165,-0.0182,-0.0181,-0.0191,-0.0191,-0.0191,-0.0192,0,0.0019,0.003,0.004,0.0045,0.0046,0.0058,0.0041,0.0039,0.0024,0.0012,0.0002,-0.0046,-0.0067,-0.0085,-0.0115,-0.0115,-0.0133,-0.0161,-0.0183,-0.0155,-0.0175,-0.0176,-0.0185,-0.0187,-0.0188,-0.0189,0,0,0.0045,0.006,0.0065,0.0084,0.008,0.009,0.0096,0.0097,0.0118,0.0082,0.0104,0.005,0.0029,0.0008,-0.0032,-0.0057,-0.0062,-0.0096,-0.0099,-0.0105,-0.0105,-0.0156,-0.0162,-0.0088,-0.0088,-0.0088,-0.0122,0,0.0078,0.0123,0.0117,0.0158,0.0181,0.0163,0.0179,0.0178,0.0169,0.0181,0.013,0.0134,0.0063,0.0066,0.0026,-0.0032,-0.0062,-0.0049,-0.0137,-0.014,-0.0183,-0.0164,-0.0128,-0.0159,-0.0123,-0.0123,-0.0123,0,0.0115,0.0143,0.0195,0.023,0.024,0.0258,0.0291,0.0303,0.0301,0.03,0.0282,0.0247,0.0214,0.015,0.0054,0.0067,-0.0012,-0.0071,-0.0074,-0.0146,-0.0192,-0.0184,-0.0162,-0.0125,-0.0125,-0.0125,-0.0125,0,0.0155,0.0197,0.0246,0.026,0.0291,0.0316,0.0332,0.0344,0.0384,0.0388,0.0426,0.0354,0.0349,0.0237,0.0107,0.0089,-0.0003,-0.0043,-0.0167,-0.0171,-0.0171,-0.0176,-0.0118,-0.0118,-0.0118,-0.0118,-0.0117,0,0.0198,0.0235,0.0275,0.0303,0.0376,0.0377,0.0453,0.0457,0.0498,0.0574,0.0502,0.0537,0.0371,0.0295,0.0153,-0.0004,0.003,-0.0153,-0.0183,-0.0146,-0.0148,-0.0147,-0.015,-0.0119,-0.0119,-0.0118,-0.0118,0,0.0237,0.0257,0.0322,0.0373,0.0398,0.0457,0.0543,0.0603,0.0629,0.0729,0.0745,0.0687,0.058,0.04,0.0222,0.0072,-0.0082,-0.0152,-0.0097,-0.0122,-0.0244,-0.0243,-0.0282,-0.0284,-0.0285,-0.0287,-0.0288,0,0.0261,0.0298,0.0384,0.0444,0.0474,0.056,0.0628,0.0668,0.074,0.0827,0.0881,0.081,0.0758,0.0466,0.0191,-0.0067,-0.0103,-0.0209,-0.0254,-0.0235,-0.0261,-0.0257,-0.0253,-0.0216,-0.0217,-0.0217,-0.0218,0,0.0312,0.0344,0.0405,0.0524,0.061,0.0708,0.0801,0.0875,0.0949,0.1015,0.1068,0.1035,0.0777,0.0505,0.0147,-0.003,-0.0169,-0.0229,-0.0206,-0.0193,-0.018,-0.0203,-0.0201,-0.0221,-0.0221,-0.0221,-0.0221,-0.022,0.0355,0.0418,0.0504,0.0615,0.0721,0.0838,0.0911,0.1011,0.1113,0.1205,0.117,0.1123,0.0844,0.0363,0.0082,-0.0211,-0.0216,-0.0319,-0.0314,-0.031,-0.0309,-0.0302,-0.0364,-0.0365,-0.0365,-0.0365,-0.0366,0,0.0417,0.0483,0.0591,0.0714,0.0816,0.0871,0.1018,0.1085,0.1194,0.1259,0.1264,0.0987,0.0711,0.0415,-0.0013,-0.0289,-0.0295,-0.0375,-0.0305,-0.03,-0.0295,-0.0291,-0.0343,-0.0344,-0.0345,-0.0345,0,0,0.0458,0.0553,0.0604,0.0757,0.0854,0.0989,0.1071,0.1177,0.1243,0.1252,0.1221,0.1135,0.08,0.0486,0.013,-0.009,-0.0138,-0.0148,-0.0139,-0.001,-0.0002,-0.024,-0.0226,0,0,0,0,0]}],[{"header":{"parameterUnit":"m.s-1","parameterCategory":2,"la1":30.2991,"la2":30.254,"lo1":-89.0895,"lo2":-89.0444,"dy":0.0017,"dx":0.0017,"nx":28,"ny":28,"refTime":"2024-03-31T09:00:00:Z","depth":"4","parameterNumber":2,"parameterNumberName":"U-component_of_CURRENTS"},"data":[0,0,0,0,0,0,0,0,0,0,0,0,0,0,0,0,0,0,0,0,0,0,0,0,0,0,0,0,0,0,0,0,0,0,0,0,0,0,0,0,0,0,0,0,0,0,0,0,0,0,0,0,0,0,0,0,0,0,0.1256,0.1257,0,0.13,0.13,0.13,0.1344,0.1345,0.1346,0.1347,0.1398,0.1399,0.1399,0,0,0,0,0,0,0,0,0,0,0,0,0,0.118,0.1181,0.1256,0.1257,0.1257,0.13,0.13,0.13,0.1344,0.1345,0.1346,0.1347,0.1398,0.1399,0.1399,0,0,0,0,0,0,0,0,0,0,0,0,0,0.1214,0.1181,0.1256,0.1287,0.129,0.13,0.13,0.13,0.1344,0.1345,0.1346,0.1348,0.1398,0.1399,0.1399,0.1378,0,0,0.1402,0.1402,0,0,0,0,0,0,0,0,0.1212,0.1216,0.1281,0.1285,0.1289,0.1321,0.1293,0.1328,0.1343,0.132,0.1347,0.1348,0.1374,0.1377,0.1377,0.138,0.1382,0.1402,0.1402,0.1403,0.1403,0,0,0,0,0,0,0,0.121,0.1215,0.127,0.1282,0.1287,0.1289,0.1295,0.1299,0.1336,0.1322,0.1326,0.1336,0.1376,0.1376,0.1379,0.1383,0.1402,0.1403,0.1403,0.1403,0.1461,0.1462,0,0,0,0,0,0,0.1211,0.1212,0.1268,0.1271,0.1257,0.1289,0.1296,0.1306,0.1336,0.1343,0.1335,0.1338,0.1374,0.1378,0.1381,0.1444,0.1403,0.1404,0.1404,0.146,0.1462,0.1463,0,0,0,0,0,0,0.1209,0.1216,0.1267,0.1246,0.1253,0.129,0.1301,0.1307,0.1339,0.1347,0.1353,0.1365,0.1376,0.138,0.1417,0.1444,0.1404,0.1405,0.1459,0.1461,0.1462,0.1515,0,0,0,0,0,0,0.1207,0.1215,0.1232,0.1246,0.1254,0.1291,0.13,0.1307,0.1343,0.1348,0.1374,0.1379,0.1377,0.1416,0.1418,0.1444,0.1405,0.1458,0.146,0.1462,0.1512,0.1519,0.1524,0,0,0,0,0,0.1204,0.1218,0.1232,0.124,0.1273,0.1292,0.1296,0.1324,0.1343,0.1358,0.1385,0.138,0.143,0.1418,0.142,0.1447,0.1457,0.1459,0.1461,0.151,0.1517,0.1524,0,0,0,0,0,0,0.1194,0.1225,0.124,0.1265,0.1287,0.1301,0.1322,0.1339,0.137,0.1386,0.1393,0.1399,0.1443,0.1435,0.1421,0.1469,0.1442,0.1445,0.1478,0.1485,0.1491,0.1491,0.1406,0,0,0,0,0,0.1199,0.1222,0.1246,0.1269,0.1283,0.1308,0.1324,0.1343,0.1367,0.1384,0.1405,0.1426,0.1446,0.146,0.1474,0.1496,0.1511,0.1514,0.152,0.1525,0.1526,0.1585,0.1596,0.147,0.147,0.147,0,0,0.1202,0.1223,0.1238,0.1269,0.129,0.1309,0.1321,0.1354,0.1373,0.1383,0.1427,0.1452,0.1459,0.1491,0.1509,0.1492,0.157,0.1528,0.1532,0.1531,0.1589,0.1601,0.1612,0.1472,0.1472,0.1471,0,0,0.1208,0.124,0.1258,0.1278,0.1317,0.133,0.1347,0.138,0.1402,0.144,0.1458,0.1499,0.1526,0.1538,0.1545,0.1588,0.1603,0.1599,0.1625,0.1683,0.1694,0.1704,0.1744,0.1757,0.1597,0.1597,0.1597,0,0.1214,0.1235,0.1265,0.1285,0.13,0.1343,0.1357,0.1383,0.1426,0.1442,0.1463,0.1534,0.1543,0.1582,0.1602,0.1601,0.1638,0.1599,0.1692,0.1702,0.1711,0.1749,0.1763,0.16,0.16,0.16,0.1599,0,0.1222,0.1249,0.1263,0.1301,0.132,0.1344,0.1377,0.1418,0.1457,0.1474,0.1539,0.1574,0.1613,0.1628,0.163,0.1699,0.1706,0.1698,0.1676,0.1727,0.1764,0.1777,0.1604,0.1603,0.1602,0.1602,0,0,0.1202,0.1258,0.1263,0.128,0.133,0.1342,0.1388,0.1423,0.1471,0.152,0.1576,0.1618,0.1655,0.1666,0.1691,0.1742,0.184,0.1757,0.1759,0.1799,0.1976,0.1831,0.1831,0.1866,0.1869,0.1871,0.1977,0,0.12,0.1221,0.1256,0.1286,0.1295,0.1353,0.1395,0.1437,0.149,0.1562,0.1604,0.1681,0.1662,0.1728,0.1763,0.1839,0.1878,0.1811,0.1916,0.1919,0.1787,0.1842,0.1879,0.1987,0.199,0.1992,0.1994,0,0.1188,0.1201,0.1215,0.1275,0.129,0.1328,0.1405,0.1459,0.1555,0.1602,0.1672,0.1729,0.1817,0.1812,0.1927,0.1898,0.1933,0.1976,0.1981,0.1834,0.1798,0.1923,0.2018,0.2016,0.2014,0.2012,0.2011,0,0.1126,0.1175,0.118,0.1196,0.1271,0.131,0.1378,0.1468,0.154,0.1663,0.1739,0.1817,0.192,0.197,0.2029,0.2015,0.2154,0.2138,0.2028,0.2019,0.2095,0.2083,0.2207,0.2207,0.2207,0.2206,0.2206,0,0.1093,0.1107,0.1162,0.1169,0.1215,0.1286,0.1391,0.146,0.1601,0.1677,0.1775,0.185,0.1979,0.2058,0.2073,0.2081,0.2181,0.204,0.2039,0.2114,0.2103,0.2104,0.2091,0.221,0.221,0.2209,0.2208,0,0.1034,0.1066,0.1089,0.116,0.119,0.1237,0.1418,0.1495,0.1633,0.1749,0.1809,0.1942,0.2037,0.2111,0.2222,0.2146,0.2167,0.2136,0.2214,0.2215,0.1987,0.1975,0.2045,0.2041,0.2037,0.2034,0.2032,0,0.1004,0.1002,0.1072,0.1105,0.1151,0.1256,0.1331,0.1488,0.1558,0.1764,0.1784,0.196,0.2018,0.2051,0.2127,0.2149,0.2113,0.2113,0.2037,0.198,0.1973,0.1966,0.196,0.2026,0.2025,0.2024,0.2023,0,0.095,0.0986,0.1006,0.1072,0.1138,0.121,0.1318,0.1365,0.1533,0.1682,0.1743,0.1813,0.1909,0.1969,0.2009,0.2005,0.2111,0.2076,0.2083,0.2011,0.1958,0.1953,0.195,0.2011,0.2013,0.2014,0.2015,0,0.0914,0.0926,0.0972,0.1024,0.1097,0.1114,0.1198,0.1274,0.1368,0.1565,0.1581,0.1731,0.188,0.1893,0.191,0.1919,0.1893,0.1828,0.1847,0.1862,0.1748,0.1651,0.1616,0,0,0,0,0,0.0874,0.0887,0.093,0.0961,0.1035,0.1071,0.1154,0.1236,0.1384,0.1383,0.1484,0.1551,0.163,0.1706,0.168,0.1822,0.1888,0.1782,0.1819,0.1943,0.1957,0.1838,0,0,0,0,0,0,0.0846,0.0884,0.0896,0.0895,0.0918,0.0966,0.1007,0.1098,0.1104,0.1272,0.1319,0.1463,0.1554,0.164,0.1658,0.1681,0.167,0.1884,0.188,0.1935,0.1948,0.1959,0.1842,0,0,0,0,0]},{"header":{"parameterUnit":"m.s-1","parameterCategory":2,"la1":30.2991,"la2":30.254,"lo1":-89.0895,"lo2":-89.0444,"dy":0.0017,"dx":0.0017,"nx":28,"ny":28,"refTime":"2024-03-31T09:00:00:Z","depth":"4","parameterNumber":3,"parameterNumberName":"V-component_of_CURRENTS"},"data":[0,0,0,0,0,0,0,0,0,0,0,0,0,0,0,0,0,0,0,0,0,0,0,0,0,0,0,0,0,0,0,0,0,0,0,0,0,0,0,0,0,0,0,0,0,0,0,0,0,0,0,0,0,0,0,0,0,0,-0.0136,-0.0136,0,-0.0164,-0.0164,-0.0165,-0.0188,-0.0188,-0.0188,-0.0189,-0.0256,-0.0257,-0.0259,0,0,0,0,0,0,0,0,0,0,0,0,0,-0.0128,-0.0128,-0.0136,-0.0136,-0.0136,-0.0164,-0.0164,-0.0165,-0.0188,-0.0188,-0.0188,-0.0189,-0.0255,-0.0257,-0.0259,0,0,0,0,0,0,0,0,0,0,0,0,0,-0.0142,-0.0128,-0.0136,-0.0151,-0.0152,-0.0164,-0.0164,-0.0165,-0.0188,-0.0188,-0.0189,-0.0189,-0.0255,-0.0257,-0.0259,-0.0269,0,0,-0.0267,-0.0268,0,0,0,0,0,0,0,0,-0.0141,-0.0142,-0.0148,-0.015,-0.0152,-0.0172,-0.0186,-0.0201,-0.0188,-0.0175,-0.0189,-0.0189,-0.0231,-0.0235,-0.024,-0.0272,-0.0275,-0.0267,-0.0269,-0.027,-0.027,0,0,0,0,0,0,0,-0.014,-0.0141,-0.0148,-0.0149,-0.0151,-0.0165,-0.0167,-0.0189,-0.0202,-0.0176,-0.0178,-0.018,-0.0232,-0.0238,-0.0242,-0.0276,-0.0267,-0.0269,-0.0271,-0.0272,-0.0321,-0.0321,0,0,0,0,0,0,-0.0133,-0.014,-0.0147,-0.0148,-0.0146,-0.0165,-0.0167,-0.0166,-0.0201,-0.0206,-0.018,-0.0181,-0.0234,-0.0239,-0.0245,-0.0252,-0.027,-0.0272,-0.0273,-0.0321,-0.0321,-0.032,0,0,0,0,0,0,-0.0133,-0.0134,-0.0146,-0.0145,-0.0147,-0.0164,-0.0163,-0.0166,-0.0175,-0.0203,-0.0209,-0.0185,-0.0234,-0.0241,-0.026,-0.0255,-0.0273,-0.0275,-0.0321,-0.0321,-0.0321,-0.0271,0,0,0,0,0,0,-0.0133,-0.0133,-0.0133,-0.0144,-0.0147,-0.015,-0.0163,-0.0167,-0.0175,-0.0177,-0.021,-0.0216,-0.0235,-0.0257,-0.0263,-0.0259,-0.0277,-0.0321,-0.0321,-0.0321,-0.0273,-0.0269,-0.0266,0,0,0,0,0,-0.0132,-0.0126,-0.0132,-0.0133,-0.0144,-0.015,-0.0152,-0.0166,-0.0175,-0.0176,-0.0196,-0.0215,-0.0259,-0.0258,-0.0266,-0.0263,-0.0321,-0.0321,-0.0321,-0.0275,-0.027,-0.0266,0,0,0,0,0,0,-0.0122,-0.0129,-0.0135,-0.0132,-0.014,-0.0153,-0.0155,-0.0166,-0.0182,-0.0185,-0.0214,-0.0221,-0.0237,-0.0257,-0.0255,-0.0276,-0.0294,-0.0295,-0.0256,-0.0252,-0.0249,-0.023,-0.0279,0,0,0,0,0,-0.0119,-0.0117,-0.0127,-0.0125,-0.0127,-0.0142,-0.0147,-0.0156,-0.017,-0.0177,-0.0199,-0.0222,-0.0241,-0.0252,-0.0274,-0.0284,-0.0307,-0.0288,-0.0284,-0.0281,-0.0271,-0.0298,-0.0296,-0.0319,-0.0319,-0.0319,0,0,-0.0115,-0.0118,-0.0118,-0.0123,-0.013,-0.0126,-0.0146,-0.015,-0.0145,-0.0183,-0.0187,-0.0214,-0.0243,-0.0253,-0.0262,-0.0269,-0.0288,-0.0281,-0.0278,-0.0269,-0.0298,-0.0295,-0.0293,-0.0319,-0.0319,-0.0319,0,0,-0.0101,-0.0108,-0.01,-0.0102,-0.0109,-0.0117,-0.0117,-0.013,-0.0135,-0.0144,-0.0168,-0.0186,-0.0219,-0.0231,-0.0243,-0.0235,-0.0272,-0.0249,-0.0213,-0.024,-0.0238,-0.0236,-0.0268,-0.027,-0.0244,-0.0244,-0.0244,0,-0.0097,-0.0085,-0.01,-0.009,-0.0084,-0.011,-0.0095,-0.0104,-0.0121,-0.0119,-0.014,-0.0175,-0.0204,-0.0207,-0.0206,-0.0226,-0.0251,-0.0224,-0.0234,-0.0233,-0.0233,-0.0265,-0.0268,-0.0241,-0.0242,-0.0242,-0.0242,0,-0.0075,-0.0065,-0.0059,-0.0053,-0.0051,-0.0044,-0.0052,-0.0051,-0.0065,-0.0077,-0.0087,-0.0125,-0.0142,-0.0159,-0.0182,-0.0188,-0.0212,-0.0229,-0.0241,-0.0227,-0.0263,-0.0266,-0.0238,-0.0239,-0.0239,-0.024,0,0,-0.0064,-0.0047,-0.0044,-0.0025,-0.0027,-0.0017,-0.0006,0.0,0.0014,-0.0017,-0.0004,-0.0044,-0.0069,-0.0084,-0.0117,-0.0141,-0.0168,-0.0181,-0.0183,-0.0206,-0.0234,-0.0241,-0.0246,-0.019,-0.019,-0.019,-0.0263,0,-0.0042,-0.0007,-0.0007,0.003,0.005,0.0045,0.0064,0.0066,0.0052,0.0053,0.0016,0.0005,-0.004,-0.0049,-0.008,-0.0146,-0.0174,-0.0147,-0.0249,-0.0252,-0.0255,-0.0248,-0.0191,-0.0266,-0.0267,-0.0267,-0.0268,0,-0.0018,0.0006,0.0047,0.0091,0.01,0.0116,0.0149,0.0162,0.0154,0.0144,0.0122,0.0083,0.0048,0.0004,-0.0092,-0.0075,-0.0147,-0.0201,-0.0206,-0.0228,-0.0265,-0.0283,-0.0275,-0.0274,-0.0274,-0.0273,-0.0273,0,0.0007,0.0048,0.0086,0.0099,0.0136,0.0162,0.0182,0.0189,0.0212,0.0198,0.0199,0.0146,0.0119,0.0031,-0.0089,-0.0092,-0.0204,-0.0223,-0.0294,-0.0296,-0.029,-0.0291,-0.0286,-0.0286,-0.0286,-0.0286,-0.0286,0,0.0037,0.0069,0.0103,0.0126,0.0188,0.0199,0.0253,0.0264,0.0277,0.0297,0.0245,0.0236,0.0123,0.0041,-0.0069,-0.0194,-0.0192,-0.0283,-0.0311,-0.027,-0.0267,-0.0294,-0.0293,-0.0289,-0.0288,-0.0287,-0.0287,0,0.0057,0.0077,0.0127,0.0176,0.0201,0.0244,0.0308,0.0337,0.0344,0.0366,0.0365,0.0303,0.0196,0.0073,-0.0077,-0.0162,-0.0283,-0.0329,-0.0277,-0.0302,-0.0362,-0.0359,-0.0405,-0.0405,-0.0406,-0.0407,-0.0407,0,0.0069,0.0095,0.0164,0.0201,0.0225,0.0291,0.0335,0.037,0.039,0.0397,0.0398,0.0323,0.0261,0.006,-0.0084,-0.0277,-0.0308,-0.0369,-0.036,-0.0349,-0.0372,-0.0368,-0.0364,-0.0408,-0.0408,-0.0408,-0.0408,0,0.0087,0.0107,0.0146,0.0225,0.0278,0.0346,0.04,0.0427,0.0454,0.0465,0.0438,0.0344,0.0225,0.0066,-0.0082,-0.0227,-0.0326,-0.0376,-0.0376,-0.0368,-0.0354,-0.0375,-0.037,-0.0411,-0.041,-0.041,-0.041,0,0.009,0.0118,0.0164,0.024,0.0308,0.0364,0.0406,0.0434,0.0468,0.0474,0.0459,0.0346,0.0286,0.0089,-0.0056,-0.0188,-0.0222,-0.0264,-0.027,-0.0269,-0.0211,-0.0173,-0.0191,0,0,0,0,0,0.0086,0.0115,0.0178,0.0252,0.0321,0.0365,0.0426,0.0457,0.0486,0.0479,0.0478,0.0371,0.0185,0.01,-0.0031,-0.0095,-0.0268,-0.0255,-0.0324,-0.0423,-0.042,-0.0376,0,0,0,0,0,0,0.008,0.0124,0.0164,0.0241,0.03,0.0372,0.0415,0.0443,0.044,0.0458,0.0364,0.0338,0.0152,0.0266,-0.0031,-0.0072,-0.0135,-0.0337,-0.034,-0.0424,-0.0422,-0.042,-0.0373,0,0,0,0,0]}]]